Regional Weather Roundup
Issued by NWS

Home | Current Version | Previous Version | Text Only | Print | Product List | Glossary On
Versions: 1 2 3 4 5 6 7 8 9 10 11 12 13 14 15 16 17 18 19 20 21 22 23 24 25 26 27
000
ASUS42 KTBW 221018
RWRFL
FLORIDA REGIONAL WEATHER ROUNDUP
NATIONAL WEATHER SERVICE TAMPA BAY RUSKIN FL
600 AM EDT FRI SEP 22 2017

NOTE: "FAIR" INDICATES FEW OR NO CLOUDS BELOW 12,000 FEET WITH NO
SIGNIFICANT WEATHER AND/OR OBSTRUCTIONS TO VISIBILITY.

FLZ001>010-012>015-112-114-115-221100-
PANHANDLE FLORIDA

CITY           SKY/WX    TMP DP  RH WIND       PRES   REMARKS
PENSACOLA      CLEAR     77  73  87 NE3       29.96S
PENSACOLA NAS  CLEAR     73  71  93 N3        29.95S
MILTON NAS     CLEAR     69  69 100 CALM      29.98R
CRESTVIEW      CLEAR     68  66  93 CALM      29.99R FOG
DUKE FIELD     FAIR      68  67  96 CALM      29.97R
VALPARAISO     CLEAR     71  68  90 NE3       29.97R
MARY ESTHER    CLEAR     70  68  93 CALM      29.95S
PANAMA CITY    FAIR      69  67  93 CALM      29.96R
TYNDALL AFB    CLEAR     72  69  90 E5        29.97R
APALACHICOLA   CLEAR     71  71 100 NE6       29.96R

STATION/POSITION SKY/WX   TEMP    WIND        PRES    WAVE   SWELL
                          AIR SEA DIR/SP/G            HT/PER HT/PER
                          (F)     (DEG/KT/KT) (MB)    (FT/S) (FT/S)
30.1N   87.6W              81 84   60/  2/  4 1014.1R   1
29.2N   88.2W              82 84   60/  6/  8 1014.2
28.8N   86.0W              81 83   50/ 10/ 12 1013.4R   1/ 5
PANAMA CITY BEAC           74      60/  3/  6 1015.0R
TOWER C                    80     120/ 11/ 12 1014.7R
28.5N   84.5W              82 82  120/ 10/ 12 1013.4R   1/ 3

$$
FLZ011-016>038-118-127-128-134-139-239-221100-
NORTH FLORIDA

CITY           SKY/WX    TMP DP  RH WIND       PRES   REMARKS
MARIANNA       CLEAR     70  69  97 CALM      29.98R
TALLAHASSEE    CLEAR     69  68  96 CALM      29.97S
LIVE OAK       PTCLDY    68  68 100 CALM      29.99S FOG
CROSS CITY     CLEAR     69  69  98 NE3       30.02R FOG
LAKE CITY      FOG       63  63 100 CALM      29.98S VSB 3/4
GAINESVILLE    CLEAR     70  68  93 N5        29.99S
WILLISTON      CLEAR     72  72 100 CALM      29.97R FOG
PALATKA        CLOUDY    72  72 100 CALM      29.97R
MAYPORT NAS    PTCLDY    78  72  81 NE10      29.97R
JACKSONVILLE   PTCLDY    71  71 100 N3        29.98R
JAX NAS        PTCLDY    77  72  84 NW5       29.97S
JAX CECIL      FOG       66  66 100 CALM      29.97S VSB 3/4
FERNANDINA BEA FAIR      77  68  73 MISG      29.97R
ST AUGUSTINE   PTCLDY    78  71  79 NE8       29.97R
PALM COAST     CLEAR     72  57  60 CALM      29.94S

STATION/POSITION SKY/WX   TEMP    WIND        PRES    WAVE   SWELL
                          AIR SEA DIR/SP/G            HT/PER HT/PER
                          (F)     (DEG/KT/KT) (MB)    (FT/S) (FT/S)
SHELL POINT      NOT AVBL
KEATON BEACH               71      30/  4/  5 1014.5R
CEDAR KEY                  74      30/  5/  6 1014.9R
FERNANDINA                 78 82   70/  1/  3 1016.0R
30.7N   81.3W                 82                N/A     3/11   2/11
MAYPORT                    80 82   60/  8/ 10 1015.3R
31.4N   80.9W              80 81   70/  8/  8 1015.3R   2/10   2/10
ST AUGUSTINE               81 83   30/ 13/ 14 1014.5R

$$
FLZ040-043>046-052-053-057-058-063-144-221100-
INTERIOR CENTRAL FLORIDA

CITY           SKY/WX    TMP DP  RH WIND       PRES   REMARKS
OCALA          CLEAR     69  69 100 N3        29.97R
THE VILLAGES     N/A     70  70 100 CALM      29.86R
LEESBURG       CLEAR     74  72  93 N7        29.95S
SANFORD        CLOUDY    76  72  87 N7        29.93S
ORLANDO EXEC   CLEAR     76  72  87 N6        29.93S
ORLANDO INTL   PTCLDY    74  73  97 N7        29.93R
KISSIMMEE      PTCLDY    76  72  87 CALM      29.94R
WINTER HAVEN   PTCLDY    74  71  91 N3        29.94R
LAKELAND       CLEAR     72  72 100 CALM      29.93S
SEBRING        FAIR      76  73  88 N3        29.91R
OKEECHOBEE     CLEAR     72  72 100 CALM      29.90R

$$
FLZ041-047-054-059-064-141-147-221100-
EAST CENTRAL FLORIDA

CITY           SKY/WX    TMP DP  RH WIND       PRES   REMARKS
DAYTONA BEACH  PTCLDY    74  72  93 CALM      29.94R
DELAND         MOCLDY    73  72  94 NW3       29.94R
JFK SPACE CTR  PTCLDY    76  74  96 CALM      29.91S
CAPE CANAVERAL PTCLDY    76  73  93 NE3       29.91R
PATRICK AFB    PTCLDY    81  77  89 NE5       29.89R
MELBOURNE      PTCLDY    80  74  81 CALM      29.91R
VERO BEACH     CLEAR     73  73 100 NW3       29.90S
FT PIERCE      CLEAR     74  74 100 W3        29.90R
STUART         PTCLDY    79  73  83 CALM      29.90S

STATION/POSITION SKY/WX   TEMP    WIND        PRES    WAVE   SWELL
                          AIR SEA DIR/SP/G            HT/PER HT/PER
                          (F)     (DEG/KT/KT) (MB)    (FT/S) (FT/S)
28.5N   80.2W              83 84  110/  8/ 10 1014.0R   3/11   3/11
28.9N   78.5W                      40/ 12/ 14 1013.8R   5/10   5/10
TRIDENT PIER               76 83   10/  5/  5 1014.5R
28.4N   80.5W                 83                N/A     2/11   2/11
27.5N   80.2W                 83                N/A     3/11   2/11

$$
FLZ050-056-061-142-242-148-248-149-249-151-251-155-255-
160-260-221100-
WEST CENTRAL FLORIDA

CITY           SKY/WX    TMP DP  RH WIND       PRES   REMARKS
CRYSTAL RIVER  FAIR     N/A N/A N/A CALM      29.96R
INVERNESS      FAIR      70  70 100 CALM      29.96R
BROOKSVILLE    CLOUDY    73  70  90 CALM      29.95R
CLEARWATER AIR FAIR      73  70  88 CALM      29.93R
ST PETE CLEARW CLEAR     78  72  81 NE3       29.93R
TAMPA INTL     PTCLDY    76  70  82 N5        29.94R
TAMPA EXEC     PTCLDY    72  70  94 CALM      29.94R FOG
PLANT CITY     CLEAR     73  72  94 CALM      29.95S
MACDILL AFB    CLEAR     71  71 100 NE5       29.93R
PETER O KNIGHT MOCLDY    77  75  94 NE5       29.93S
ST PETERSBURG  CLEAR     80  74  81 NE7       29.91R
SARASOTA       CLEAR     74  71  91 NE6       29.91R
VENICE         FAIR      73  72  94 NE6       29.91S

STATION/POSITION SKY/WX   TEMP    WIND        PRES    WAVE   SWELL
                          AIR SEA DIR/SP/G            HT/PER HT/PER
                          (F)     (DEG/KT/KT) (MB)    (FT/S) (FT/S)
27.3N   84.2W                 83                N/A     2/ 5
CLEARWATER BEACH           77 84   50/  4/  7 1013.6R
MIDDLE TAMPA BAY           79      80/  8/  9 1013.2R
VENICE                     75 83   40/  5/  6 1013.0R

$$
FLZ066-069-070-075>078-162-262-165-265-221100-
SOUTHWEST FLORIDA AND KEYS

CITY           SKY/WX    TMP DP  RH WIND       PRES   REMARKS
PUNTA GORDA    CLEAR     74  72  93 NE3       29.92R
FT MYERS       CLEAR     76  75  97 NE5       29.89S
SOUTHWEST INTL CLEAR     75  72  90 NE7       29.90R
NAPLES         CLEAR     76  74  93 NE5       29.88S
IMMOKALEE      FAIR      73  73 100 N3        29.91R
MARATHON       CLEAR     82  73  74 E5        29.86R
KEY WEST NAS   CLEAR     84  77  79 MISG      29.87R
KEY WEST INTL  PTCLDY    83  76  79 E6        29.87S

STATION/POSITION SKY/WX   TEMP    WIND        PRES    WAVE   SWELL
                          AIR SEA DIR/SP/G            HT/PER HT/PER
                          (F)     (DEG/KT/KT) (MB)    (FT/S) (FT/S)
NAPLES                        85   40/  3/  4 1012.1R
DRY TORTUGAS               84     100/  7/  7 1011.6S
SAND KEY                   83                 1011.9F

$$
FLZ067-068-071>074-168-172>174-221100-
SOUTHEAST FLORIDA

CITY           SKY/WX    TMP DP  RH WIND       PRES   REMARKS
W PALM BEACH   PTCLDY    80  74  81 NW3       29.88S
FT LAUDER-EXEC PTCLDY    77  75  93 CALM      29.87S
FT LAUDERDALE  PTCLDY    79  78  97 CALM      29.87R
POMPANO BEACH  PTCLDY    78  76  93 N3        29.87S
PEMBROKE PINES CLEAR     77  76  96 NW3       29.89R
OPA LOCKA      CLEAR     79  76  90 CALM      29.88R
MIAMI          PTCLDY    80  78  94 NW3       29.87S
WEST KENDALL   CLEAR     77  74  90 CALM      29.87R
HOMESTEAD      CLEAR     79  77  94 N3        29.86R

STATION/POSITION SKY/WX   TEMP    WIND        PRES    WAVE   SWELL
                          AIR SEA DIR/SP/G            HT/PER HT/PER
                          (F)     (DEG/KT/KT) (MB)    (FT/S) (FT/S)
PORT EVERGLADES            84      90/  3/  6 1011.4S
VIRGINIA KEY               82 86   20/  3/  5 1011.0R
LAKE WORTH                        100/  5/  7   N/A
FOWEY ROCKS                83 85   50/ 10/ 11 1012.0R
SETTLEMENT POINT           83     120/  9/ 11 1012.0R

$$





USA.gov is the U.S. government's official web portal to all federal, state and local government web resources and services.